[[{"header":{"parameterUnit":"m.s-1","parameterCategory":2,"la1":30.2991,"la2":30.254,"lo1":-89.0895,"lo2":-89.0444,"dy":0.0017,"dx":0.0017,"nx":28,"ny":28,"refTime":"2024-03-30T03:00:00:Z","depth":"0","parameterNumber":2,"parameterNumberName":"U-component_of_CURRENTS"},"data":[0,0,0,0,0,0,0,0,0,0,0,0,0,0,0,0,0,0,0,0,0,0,0,0,0,0,0,0,0,0,0,0,0,0,0,0,0,0,0,0,0,0,0,0,0,0,0,0,0,0,0,0,0,0,0,0,0,0,-0.1333,-0.1332,0,-0.1282,-0.1281,-0.1281,-0.1204,-0.1203,-0.1202,-0.12,-0.1124,-0.1123,-0.1123,0,0,0,0,0,0,0,0,0,0,0,0,0,-0.1337,-0.1338,-0.1333,-0.1332,-0.1331,-0.1282,-0.1281,-0.1281,-0.1205,-0.1203,-0.1201,-0.1199,-0.1124,-0.1123,-0.1123,0,0,0,0,0,0,0,0,0,0,0,0,0,-0.1317,-0.1338,-0.1333,-0.1286,-0.1282,-0.1282,-0.1281,-0.1281,-0.1205,-0.1203,-0.1201,-0.1199,-0.1124,-0.1123,-0.1122,-0.116,0,0,-0.1119,-0.1119,0,0,0,0,0,0,0,0,-0.1318,-0.1317,-0.1294,-0.129,-0.1284,-0.1246,-0.1255,-0.1239,-0.1206,-0.1235,-0.12,-0.1198,-0.1163,-0.1159,-0.1156,-0.1156,-0.1153,-0.1119,-0.1119,-0.1118,-0.1118,0,0,0,0,0,0,0,-0.132,-0.1319,-0.1314,-0.1293,-0.1287,-0.1259,-0.1254,-0.1252,-0.1213,-0.1233,-0.1227,-0.122,-0.116,-0.1158,-0.1154,-0.1152,-0.1119,-0.1118,-0.1118,-0.1117,-0.1251,-0.1255,0,0,0,0,0,0,-0.1328,-0.1321,-0.1315,-0.1312,-0.1295,-0.1261,-0.1255,-0.1262,-0.1213,-0.1203,-0.1222,-0.1217,-0.116,-0.1155,-0.1151,-0.1252,-0.1118,-0.1117,-0.1117,-0.1247,-0.1252,-0.1257,0,0,0,0,0,0,-0.1329,-0.1329,-0.1317,-0.1313,-0.1309,-0.1263,-0.1271,-0.1262,-0.1255,-0.1205,-0.1194,-0.1224,-0.1158,-0.1152,-0.1176,-0.1246,-0.1117,-0.1116,-0.1242,-0.1249,-0.1255,-0.1416,0,0,0,0,0,0,-0.1329,-0.133,-0.1343,-0.1314,-0.131,-0.1339,-0.1272,-0.1262,-0.1254,-0.1247,-0.1204,-0.1194,-0.1156,-0.1178,-0.1175,-0.1242,-0.1115,-0.1237,-0.1245,-0.1253,-0.1405,-0.1427,-0.1445,0,0,0,0,0,-0.133,-0.1358,-0.1345,-0.1344,-0.1329,-0.1341,-0.1338,-0.1297,-0.1257,-0.1278,-0.1254,-0.1195,-0.1226,-0.1181,-0.1176,-0.1244,-0.1233,-0.1243,-0.1252,-0.1396,-0.1423,-0.1445,0,0,0,0,0,0,-0.1376,-0.1352,-0.1337,-0.1358,-0.136,-0.1328,-0.1336,-0.131,-0.1306,-0.1294,-0.1238,-0.1231,-0.128,-0.1249,-0.12,-0.1311,-0.1225,-0.1234,-0.1337,-0.1361,-0.1381,-0.1417,-0.1114,0,0,0,0,0,-0.1393,-0.1401,-0.1386,-0.1407,-0.1407,-0.1376,-0.1374,-0.1353,-0.134,-0.1334,-0.1311,-0.1301,-0.132,-0.1325,-0.1328,-0.1384,-0.134,-0.1431,-0.1452,-0.1468,-0.15,-0.1497,-0.1519,-0.1288,-0.1287,-0.1287,0,0,-0.1414,-0.1404,-0.1408,-0.1416,-0.1405,-0.145,-0.137,-0.138,-0.1432,-0.133,-0.1391,-0.1364,-0.135,-0.1416,-0.1437,-0.1395,-0.1511,-0.148,-0.1495,-0.1517,-0.1509,-0.1531,-0.155,-0.1294,-0.1293,-0.1292,0,0,-0.1473,-0.1457,-0.1489,-0.1504,-0.1504,-0.1499,-0.151,-0.1499,-0.1505,-0.1555,-0.1509,-0.1537,-0.1543,-0.157,-0.1577,-0.1717,-0.1613,-0.1708,-0.1841,-0.1838,-0.1857,-0.1872,-0.1832,-0.1842,-0.1722,-0.1723,-0.1723,0,-0.1507,-0.1548,-0.1505,-0.1555,-0.1585,-0.1533,-0.1603,-0.1618,-0.1624,-0.1652,-0.1597,-0.1646,-0.1633,-0.173,-0.1789,-0.1764,-0.1717,-0.1743,-0.1862,-0.1876,-0.1889,-0.1844,-0.1854,-0.1732,-0.1731,-0.173,-0.1729,0,-0.1593,-0.164,-0.1664,-0.1715,-0.1745,-0.1793,-0.1809,-0.1849,-0.1837,-0.1843,-0.1911,-0.1889,-0.1912,-0.1929,-0.1904,-0.2012,-0.1931,-0.1877,-0.1792,-0.1922,-0.1866,-0.1873,-0.1744,-0.1741,-0.1739,-0.1736,0,0,-0.1651,-0.1714,-0.1729,-0.1785,-0.1835,-0.1871,-0.1972,-0.2049,-0.2096,-0.211,-0.2169,-0.2238,-0.2181,-0.2191,-0.2153,-0.2178,-0.2234,-0.2081,-0.2077,-0.2028,-0.2191,-0.2107,-0.2105,-0.2178,-0.2181,-0.2183,-0.2108,0,-0.1745,-0.1867,-0.1877,-0.2017,-0.2087,-0.2097,-0.2189,-0.2247,-0.2259,-0.2301,-0.23,-0.2319,-0.2291,-0.2271,-0.2311,-0.2235,-0.2263,-0.2258,-0.2086,-0.2081,-0.198,-0.2116,-0.203,-0.1954,-0.2114,-0.2115,-0.2115,0,-0.1835,-0.1913,-0.2054,-0.217,-0.2198,-0.2268,-0.2379,-0.2448,-0.2499,-0.2497,-0.2522,-0.2464,-0.2518,-0.2438,-0.2429,-0.2411,-0.2344,-0.2286,-0.2279,-0.2156,-0.2014,-0.1856,-0.1959,-0.1931,-0.2125,-0.2124,-0.2123,0,-0.1901,-0.2039,-0.2155,-0.2199,-0.2318,-0.2383,-0.2435,-0.2505,-0.2531,-0.2585,-0.2557,-0.261,-0.2555,-0.254,-0.2426,-0.2419,-0.2361,-0.2318,-0.2192,-0.2181,-0.2058,-0.2033,-0.2107,-0.2338,-0.2338,-0.2338,-0.2338,0,-0.2007,-0.2104,-0.2185,-0.226,-0.2366,-0.2433,-0.2515,-0.2573,-0.2602,-0.259,-0.2626,-0.2582,-0.2571,-0.2507,-0.2455,-0.2335,-0.2378,-0.2253,-0.2183,-0.2111,-0.2093,-0.2018,-0.2029,-0.2335,-0.2336,-0.2336,-0.2337,0,-0.2067,-0.2128,-0.225,-0.2374,-0.2393,-0.2461,-0.2499,-0.2514,-0.2578,-0.2548,-0.2542,-0.2541,-0.2472,-0.2439,-0.2367,-0.2317,-0.2196,-0.2184,-0.2086,-0.2009,-0.1894,-0.1916,-0.192,-0.1863,-0.2067,-0.2064,-0.2063,0,-0.2118,-0.2186,-0.2287,-0.2275,-0.2317,-0.2388,-0.2379,-0.2476,-0.2453,-0.2482,-0.2424,-0.2395,-0.2323,-0.2225,-0.2163,-0.2086,-0.2078,-0.1945,-0.1964,-0.1921,-0.1894,-0.1913,-0.1867,-0.1847,-0.1844,-0.1841,-0.1839,0,-0.2163,-0.2171,-0.2209,-0.2206,-0.2196,-0.2222,-0.2223,-0.2224,-0.2283,-0.2281,-0.2228,-0.2198,-0.2127,-0.2022,-0.1949,-0.189,-0.1912,-0.1884,-0.1877,-0.1792,-0.1783,-0.1678,-0.1837,-0.1814,-0.1816,-0.1818,-0.1819,-0.182,-0.2103,-0.2086,-0.2055,-0.205,-0.2034,-0.2,-0.1978,-0.1977,-0.1968,-0.1933,-0.199,-0.1937,-0.1902,-0.1808,-0.1744,-0.1641,-0.1714,-0.1599,-0.1642,-0.1674,-0.1616,-0.1718,-0.1594,-0.1595,-0.1596,-0.1597,-0.1598,0,-0.1942,-0.189,-0.1871,-0.1826,-0.1763,-0.1823,-0.1792,-0.1742,-0.1685,-0.1722,-0.1696,-0.1689,-0.1591,-0.1578,-0.1506,-0.1431,-0.1404,-0.1395,-0.1425,-0.1397,-0.1503,-0.1489,-0.1291,-0.1291,-0.1291,-0.1292,-0.1292,-0.1292,-0.1822,-0.1695,-0.1688,-0.1535,-0.1516,-0.1402,-0.1372,-0.1345,-0.1356,-0.1335,-0.1372,-0.14,-0.1438,-0.1543,-0.1429,-0.1344,-0.1316,-0.1271,-0.1295,-0.1393,-0.1416,-0.1438,-0.1429,-0.1222,-0.1222,-0.1128,-0.1128,-0.1127]},{"header":{"parameterUnit":"m.s-1","parameterCategory":2,"la1":30.2991,"la2":30.254,"lo1":-89.0895,"lo2":-89.0444,"dy":0.0017,"dx":0.0017,"nx":28,"ny":28,"refTime":"2024-03-30T03:00:00:Z","depth":"0","parameterNumber":3,"parameterNumberName":"V-component_of_CURRENTS"},"data":[0,0,0,0,0,0,0,0,0,0,0,0,0,0,0,0,0,0,0,0,0,0,0,0,0,0,0,0,0,0,0,0,0,0,0,0,0,0,0,0,0,0,0,0,0,0,0,0,0,0,0,0,0,0,0,0,0,0,-0.0355,-0.0354,0,-0.0246,-0.0244,-0.0243,-0.0155,-0.0154,-0.0154,-0.0153,0.002,0.0024,0.0028,0,0,0,0,0,0,0,0,0,0,0,0,0,-0.0416,-0.0416,-0.0355,-0.0354,-0.0353,-0.0246,-0.0244,-0.0242,-0.0155,-0.0154,-0.0154,-0.0153,0.0018,0.0023,0.0028,0,0,0,0,0,0,0,0,0,0,0,0,0,-0.0352,-0.0416,-0.0355,-0.03,-0.0295,-0.0247,-0.0244,-0.0242,-0.0155,-0.0154,-0.0153,-0.0153,0.0017,0.0023,0.0029,0.0054,0,0,0.0048,0.0051,0,0,0,0,0,0,0,0,-0.0356,-0.035,-0.0309,-0.0304,-0.0298,-0.0217,-0.0203,-0.0141,-0.0155,-0.0203,-0.0153,-0.0152,-0.0057,-0.0045,-0.002,0.0062,0.007,0.0049,0.0053,0.0055,0.0057,0,0,0,0,0,0,0,-0.0361,-0.0354,-0.0307,-0.0308,-0.0301,-0.0257,-0.0247,-0.019,-0.013,-0.0198,-0.0193,-0.0189,-0.0053,-0.0026,-0.0015,0.0072,0.0049,0.0054,0.0058,0.0061,0.0283,0.0285,0,0,0,0,0,0,-0.0389,-0.0358,-0.0311,-0.0304,-0.0331,-0.0257,-0.0246,-0.024,-0.0132,-0.0117,-0.019,-0.0185,-0.0037,-0.0023,-0.0009,0.0079,0.0055,0.0061,0.0065,0.0281,0.0284,0.0286,0,0,0,0,0,0,-0.039,-0.0385,-0.0315,-0.0332,-0.0321,-0.0258,-0.0251,-0.0238,-0.0205,-0.0127,-0.0109,-0.017,-0.0036,-0.0017,0.0055,0.0085,0.0064,0.007,0.0278,0.0282,0.0285,0.0222,0,0,0,0,0,0,-0.0392,-0.0386,-0.0384,-0.0335,-0.0321,-0.0291,-0.0252,-0.0237,-0.0206,-0.0199,-0.0104,-0.0088,-0.0034,0.0045,0.0061,0.0093,0.0075,0.0276,0.028,0.0284,0.0221,0.0222,0.0223,0,0,0,0,0,-0.0395,-0.0402,-0.0385,-0.0379,-0.0323,-0.0292,-0.028,-0.0229,-0.0206,-0.0195,-0.0123,-0.009,0.0083,0.0051,0.0069,0.0104,0.0274,0.0279,0.0283,0.022,0.0222,0.0223,0,0,0,0,0,0,-0.0424,-0.0393,-0.0373,-0.0368,-0.0335,-0.0279,-0.0266,-0.0233,-0.0168,-0.0153,-0.0078,-0.0056,0.0022,0.0075,0.0037,0.0186,0.019,0.0199,0.0136,0.0138,0.014,0.0142,0.008,0,0,0,0,0,-0.0433,-0.043,-0.0391,-0.0386,-0.0374,-0.0319,-0.0298,-0.0264,-0.0207,-0.0177,-0.0112,-0.0026,0.0057,0.0102,0.0174,0.0243,0.027,0.0287,0.0288,0.0288,0.0307,0.0391,0.04,0.0302,0.0302,0.0302,0,0,-0.0444,-0.0426,-0.0423,-0.0392,-0.036,-0.0332,-0.0303,-0.0276,-0.0235,-0.0169,-0.0094,-0.003,0.0075,0.0158,0.02,0.0205,0.0316,0.0294,0.0293,0.0313,0.0397,0.0406,0.0414,0.0305,0.0305,0.0304,0,0,-0.0466,-0.0448,-0.0451,-0.0426,-0.0389,-0.0346,-0.0343,-0.0286,-0.0243,-0.0176,-0.0105,-0.0022,0.0087,0.0176,0.0235,0.0291,0.0313,0.0315,0.0329,0.0409,0.0417,0.0425,0.0392,0.0398,0.0323,0.0323,0.0323,0,-0.0479,-0.0472,-0.0446,-0.0436,-0.0409,-0.0356,-0.0336,-0.0285,-0.0207,-0.0159,-0.0157,0.0042,0.0107,0.0245,0.0264,0.0293,0.0303,0.0303,0.0406,0.0415,0.0424,0.039,0.0397,0.0321,0.0321,0.0321,0.0321,0,-0.0495,-0.0486,-0.0487,-0.0447,-0.0412,-0.0393,-0.0324,-0.0279,-0.0224,-0.0159,-0.0036,0.0058,0.0182,0.0216,0.0255,0.0369,0.0336,0.0383,0.0388,0.043,0.0391,0.0399,0.0317,0.0318,0.0319,0.0319,0,0,-0.053,-0.0505,-0.0502,-0.0482,-0.0416,-0.0386,-0.0319,-0.0231,-0.0165,-0.0085,0.0009,0.0146,0.0197,0.027,0.0335,0.0407,0.0437,0.0414,0.042,0.0353,0.0529,0.0513,0.0519,0.0499,0.0502,0.0504,0.0445,0,-0.0547,-0.0546,-0.051,-0.0471,-0.0457,-0.038,-0.0317,-0.0225,-0.0134,-0.0035,0.0082,0.0189,0.0221,0.0274,0.0356,0.0428,0.047,0.0443,0.0526,0.0527,0.0487,0.0535,0.0581,0.0537,0.0453,0.0454,0.0455,0,-0.0564,-0.056,-0.0549,-0.048,-0.0462,-0.0421,-0.0293,-0.0228,-0.0077,-0.0009,0.0121,0.0207,0.0326,0.0345,0.0479,0.0456,0.0489,0.0532,0.0532,0.0559,0.0531,0.0504,0.0555,0.0702,0.0468,0.0467,0.0466,0,-0.0603,-0.0571,-0.0562,-0.0544,-0.0466,-0.0426,-0.0364,-0.0222,-0.016,0.0008,0.0053,0.0232,0.0277,0.0399,0.0451,0.0478,0.0559,0.0612,0.0619,0.0612,0.0695,0.0693,0.089,0.0716,0.0716,0.0716,0.0716,0,-0.063,-0.0617,-0.0585,-0.0582,-0.0539,-0.0463,-0.0381,-0.0291,-0.0169,-0.0111,0.0052,0.0104,0.0296,0.0357,0.0444,0.0521,0.0547,0.0629,0.0631,0.0665,0.0661,0.0829,0.0892,0.0714,0.0714,0.0715,0.0715,0,-0.0668,-0.0658,-0.0644,-0.0588,-0.0564,-0.0532,-0.0434,-0.0383,-0.0269,-0.0197,-0.0163,-0.0009,0.0084,0.0224,0.0379,0.0469,0.0661,0.0587,0.055,0.0553,0.0763,0.0818,0.0991,0.1077,0.0636,0.0636,0.0636,0,-0.0686,-0.0695,-0.0664,-0.0665,-0.0644,-0.059,-0.0563,-0.0443,-0.0404,-0.029,-0.0285,-0.017,-0.0084,0.0111,0.0323,0.0482,0.0614,0.0595,0.0712,0.0795,0.086,0.0896,0.0959,0.0745,0.0746,0.0746,0.0747,0,-0.0712,-0.0711,-0.0705,-0.0723,-0.0712,-0.0689,-0.0651,-0.0637,-0.0531,-0.0481,-0.0432,-0.0352,-0.0136,0.0115,0.0333,0.0442,0.074,0.0614,0.0767,0.1029,0.1022,0.1095,0.0668,0.0752,0.0752,0.0751,0.0751,0.0751,-0.0721,-0.0737,-0.0748,-0.0757,-0.0768,-0.0789,-0.077,-0.0752,-0.0712,-0.0615,-0.0561,-0.0381,-0.0019,0.0349,0.0467,0.0801,0.0788,0.0939,0.1001,0.1029,0.1149,0.0675,0.0737,0.0736,0.0736,0.0735,0.0735,0,-0.0716,-0.0748,-0.0777,-0.0798,-0.0839,-0.0823,-0.0826,-0.0801,-0.0786,-0.0653,-0.0563,-0.0118,0.023,0.059,0.1028,0.12,0.1269,0.1276,0.1392,0.1444,0.1092,0.114,0.1215,0.1215,0.1214,0.1214,0.1214,0.1214,-0.071,-0.0747,-0.0776,-0.0846,-0.0874,-0.0899,-0.0903,-0.0866,-0.0755,-0.0488,-0.0195,0.0052,0.0549,0.1176,0.1576,0.1598,0.178,0.1726,0.1813,0.1622,0.1597,0.1573,0.1639,0.1817,0.1817,0.2179,0.2183,0.2186]}],[{"header":{"parameterUnit":"m.s-1","parameterCategory":2,"la1":30.2991,"la2":30.254,"lo1":-89.0895,"lo2":-89.0444,"dy":0.0017,"dx":0.0017,"nx":28,"ny":28,"refTime":"2024-03-30T03:00:00:Z","depth":"2","parameterNumber":2,"parameterNumberName":"U-component_of_CURRENTS"},"data":[0,0,0,0,0,0,0,0,0,0,0,0,0,0,0,0,0,0,0,0,0,0,0,0,0,0,0,0,0,0,0,0,0,0,0,0,0,0,0,0,0,0,0,0,0,0,0,0,0,0,0,0,0,0,0,0,0,0,-0.2122,-0.2122,0,-0.2108,-0.2107,-0.2107,-0.2054,-0.2053,-0.2052,-0.2052,-0.1947,-0.1945,-0.1943,0,0,0,0,0,0,0,0,0,0,0,0,0,-0.2127,-0.2127,-0.2122,-0.2122,-0.2122,-0.2108,-0.2107,-0.2107,-0.2054,-0.2053,-0.2052,-0.2051,-0.1947,-0.1945,-0.1942,0,0,0,0,0,0,0,0,0,0,0,0,0,-0.2115,-0.2127,-0.2121,-0.2098,-0.2096,-0.2108,-0.2107,-0.2106,-0.2054,-0.2053,-0.2052,-0.2051,-0.1948,-0.1945,-0.1942,-0.1945,0,0,-0.1932,-0.1931,0,0,0,0,0,0,0,0,-0.2116,-0.2114,-0.2101,-0.21,-0.2098,-0.2086,-0.2071,-0.205,-0.2054,-0.2065,-0.2052,-0.205,-0.1989,-0.1983,-0.1976,-0.194,-0.1935,-0.1932,-0.193,-0.1929,-0.1928,0,0,0,0,0,0,0,-0.2117,-0.2115,-0.2111,-0.2102,-0.21,-0.2097,-0.2093,-0.2067,-0.2027,-0.2064,-0.2061,-0.2068,-0.1986,-0.1979,-0.1973,-0.1934,-0.1932,-0.1929,-0.1927,-0.1926,-0.1931,-0.1933,0,0,0,0,0,0,-0.2129,-0.2116,-0.2111,-0.2111,-0.211,-0.2098,-0.2094,-0.2087,-0.203,-0.2022,-0.2069,-0.2066,-0.1985,-0.1977,-0.1969,-0.1997,-0.1929,-0.1926,-0.1924,-0.1929,-0.1932,-0.1934,0,0,0,0,0,0,-0.2129,-0.2128,-0.2112,-0.2118,-0.2116,-0.21,-0.2092,-0.2087,-0.2066,-0.2036,-0.2025,-0.2052,-0.1984,-0.1974,-0.1942,-0.1991,-0.1924,-0.1921,-0.1927,-0.193,-0.1933,-0.2034,0,0,0,0,0,0,-0.2129,-0.2128,-0.2127,-0.2118,-0.2117,-0.212,-0.2093,-0.2088,-0.2076,-0.207,-0.2018,-0.2008,-0.1983,-0.1947,-0.1939,-0.1986,-0.1919,-0.1924,-0.1928,-0.1932,-0.2028,-0.2041,-0.2051,0,0,0,0,0,-0.2129,-0.213,-0.2127,-0.2127,-0.2115,-0.2121,-0.2119,-0.2101,-0.2076,-0.2074,-0.2037,-0.2009,-0.1967,-0.1945,-0.1935,-0.1983,-0.1922,-0.1927,-0.1931,-0.2023,-0.2038,-0.2051,0,0,0,0,0,0,-0.2116,-0.2125,-0.2121,-0.212,-0.2124,-0.2114,-0.2114,-0.2097,-0.2067,-0.2053,-0.2012,-0.2,-0.1998,-0.1972,-0.1949,-0.1999,-0.195,-0.1952,-0.2023,-0.2036,-0.2047,-0.206,-0.1916,0,0,0,0,0,-0.212,-0.2131,-0.2133,-0.2133,-0.2135,-0.2122,-0.212,-0.2107,-0.2085,-0.207,-0.203,-0.2008,-0.2015,-0.2006,-0.1989,-0.2,-0.1949,-0.2033,-0.2044,-0.2054,-0.206,-0.1997,-0.2002,-0.1949,-0.1949,-0.1949,0,0,-0.2122,-0.2124,-0.2133,-0.2134,-0.2131,-0.2159,-0.2115,-0.2113,-0.2138,-0.2063,-0.2058,-0.2029,-0.2022,-0.2044,-0.2044,-0.2024,-0.2049,-0.206,-0.2068,-0.2069,-0.2002,-0.2007,-0.2011,-0.1952,-0.1951,-0.1951,0,0,-0.2125,-0.2126,-0.2134,-0.215,-0.2154,-0.2169,-0.2169,-0.215,-0.2141,-0.2132,-0.211,-0.2111,-0.2077,-0.2111,-0.2122,-0.2185,-0.2102,-0.2178,-0.225,-0.219,-0.2193,-0.2195,-0.216,-0.2157,-0.2193,-0.2193,-0.2193,0,-0.2119,-0.2136,-0.2137,-0.2153,-0.2173,-0.2179,-0.2198,-0.2217,-0.2188,-0.2188,-0.2138,-0.2136,-0.2128,-0.2203,-0.2234,-0.2215,-0.2149,-0.2199,-0.2202,-0.2203,-0.2203,-0.2166,-0.2162,-0.2199,-0.2198,-0.2197,-0.2197,0,-0.2134,-0.2157,-0.2165,-0.2206,-0.2224,-0.2247,-0.2278,-0.2299,-0.2282,-0.2279,-0.229,-0.227,-0.2268,-0.2292,-0.228,-0.2316,-0.2259,-0.2212,-0.2162,-0.2214,-0.2172,-0.2167,-0.2206,-0.2204,-0.2203,-0.2201,0,0,-0.2079,-0.2164,-0.2166,-0.217,-0.2252,-0.2241,-0.2344,-0.2397,-0.2405,-0.2409,-0.2387,-0.2467,-0.2419,-0.2431,-0.2422,-0.2398,-0.2367,-0.2305,-0.2299,-0.2262,-0.222,-0.2174,-0.2162,-0.2283,-0.2282,-0.2282,-0.2198,0,-0.2084,-0.2127,-0.2182,-0.222,-0.2232,-0.2309,-0.2373,-0.2423,-0.2441,-0.242,-0.246,-0.2429,-0.2488,-0.2444,-0.2452,-0.2353,-0.2351,-0.2394,-0.2183,-0.2178,-0.2122,-0.2154,-0.2016,-0.1927,-0.2191,-0.219,-0.219,0,-0.2052,-0.2093,-0.2142,-0.2183,-0.2189,-0.2241,-0.2308,-0.2353,-0.242,-0.241,-0.2458,-0.2427,-0.2472,-0.2432,-0.2403,-0.2405,-0.2339,-0.2277,-0.227,-0.2184,-0.212,-0.1914,-0.1905,-0.2179,-0.218,-0.2181,-0.2181,0,-0.1951,-0.2028,-0.2063,-0.2091,-0.2178,-0.2216,-0.2266,-0.2351,-0.2354,-0.239,-0.2356,-0.2409,-0.2369,-0.2329,-0.23,-0.23,-0.2183,-0.2161,-0.209,-0.2086,-0.1911,-0.1893,-0.2118,-0.2118,-0.2118,-0.2119,-0.2119,0,-0.1905,-0.192,-0.2018,-0.2035,-0.2035,-0.211,-0.2118,-0.2191,-0.2236,-0.2231,-0.2318,-0.2309,-0.2318,-0.2281,-0.2251,-0.217,-0.2168,-0.2108,-0.2058,-0.1948,-0.1935,-0.2102,-0.2101,-0.2115,-0.2116,-0.2117,-0.2117,0,-0.1784,-0.1878,-0.1881,-0.1969,-0.1987,-0.1969,-0.203,-0.2044,-0.2111,-0.2104,-0.2106,-0.2186,-0.2172,-0.2189,-0.2098,-0.2094,-0.2015,-0.1987,-0.1885,-0.1826,-0.1971,-0.1977,-0.1883,-0.188,-0.1878,-0.1877,-0.1875,0,-0.1735,-0.1733,-0.1785,-0.1797,-0.1851,-0.1861,-0.1893,-0.1971,-0.2,-0.2051,-0.2036,-0.204,-0.2059,-0.1963,-0.1932,-0.1875,-0.1946,-0.1711,-0.1719,-0.1985,-0.1945,-0.1954,-0.1962,-0.1532,-0.1528,-0.1525,-0.1522,0,-0.1622,-0.1644,-0.1671,-0.1684,-0.1714,-0.1714,-0.1772,-0.1769,-0.1871,-0.1881,-0.1908,-0.1907,-0.1878,-0.1773,-0.172,-0.1676,-0.1713,-0.164,-0.1889,-0.163,-0.1651,-0.1614,-0.1633,-0.1492,-0.1495,-0.1497,-0.1499,-0.15,-0.1528,-0.1512,-0.1552,-0.155,-0.158,-0.159,-0.1561,-0.164,-0.1639,-0.1655,-0.1735,-0.1693,-0.1697,-0.1548,-0.1468,-0.1407,-0.1534,-0.1461,-0.1472,-0.1486,-0.1478,-0.1495,-0.1306,-0.1308,-0.131,-0.1311,-0.1312,0,-0.1406,-0.1425,-0.1423,-0.1432,-0.1417,-0.1466,-0.1491,-0.1461,-0.1445,-0.1487,-0.1487,-0.1356,-0.1284,-0.1283,-0.1148,-0.1125,-0.1118,-0.107,-0.1061,-0.1092,-0.1119,-0.1093,-0.0818,-0.0817,-0.0815,-0.0814,0,0,-0.1351,-0.1326,-0.1332,-0.1273,-0.1279,-0.1217,-0.1204,-0.1183,-0.1182,-0.1144,-0.1121,-0.1216,-0.125,-0.1035,-0.0988,-0.0876,-0.0971,-0.083,-0.1229,-0.125,-0.1275,-0.135,-0.1345,0,0,0,0,0]},{"header":{"parameterUnit":"m.s-1","parameterCategory":2,"la1":30.2991,"la2":30.254,"lo1":-89.0895,"lo2":-89.0444,"dy":0.0017,"dx":0.0017,"nx":28,"ny":28,"refTime":"2024-03-30T03:00:00:Z","depth":"2","parameterNumber":3,"parameterNumberName":"V-component_of_CURRENTS"},"data":[0,0,0,0,0,0,0,0,0,0,0,0,0,0,0,0,0,0,0,0,0,0,0,0,0,0,0,0,0,0,0,0,0,0,0,0,0,0,0,0,0,0,0,0,0,0,0,0,0,0,0,0,0,0,0,0,0,0,0.0396,0.0397,0,0.0476,0.0476,0.0477,0.0513,0.0514,0.0514,0.0514,0.052,0.0519,0.0519,0,0,0,0,0,0,0,0,0,0,0,0,0,0.0271,0.0273,0.0396,0.0397,0.0399,0.0476,0.0476,0.0477,0.0513,0.0514,0.0514,0.0515,0.052,0.0519,0.0519,0,0,0,0,0,0,0,0,0,0,0,0,0,0.033,0.0273,0.0395,0.0431,0.0435,0.0476,0.0476,0.0477,0.0513,0.0514,0.0514,0.0515,0.052,0.0519,0.0519,0.0502,0,0,0.0518,0.0517,0,0,0,0,0,0,0,0,0.0327,0.0334,0.0424,0.0428,0.0433,0.0491,0.0435,0.0484,0.0513,0.0477,0.0514,0.0515,0.0506,0.0507,0.0513,0.0502,0.0503,0.0518,0.0517,0.0517,0.0517,0,0,0,0,0,0,0,0.0322,0.0331,0.0421,0.0426,0.0431,0.0442,0.045,0.0444,0.0481,0.048,0.0484,0.0503,0.0508,0.0513,0.0513,0.0503,0.0518,0.0517,0.0517,0.0517,0.0455,0.0454,0,0,0,0,0,0,0.0324,0.0327,0.0419,0.0424,0.0387,0.0444,0.0453,0.0466,0.0482,0.0488,0.0502,0.0504,0.0514,0.0514,0.0514,0.0473,0.0517,0.0517,0.0516,0.0456,0.0455,0.0453,0,0,0,0,0,0,0.0321,0.0332,0.0416,0.0382,0.0395,0.0446,0.046,0.0468,0.0471,0.0501,0.0504,0.0498,0.0514,0.0514,0.0492,0.0475,0.0516,0.0516,0.0458,0.0456,0.0454,0.0406,0,0,0,0,0,0,0.0317,0.033,0.0334,0.0382,0.0397,0.0426,0.0461,0.0469,0.0485,0.0488,0.0499,0.0501,0.0515,0.0493,0.0492,0.0475,0.0516,0.046,0.0457,0.0454,0.0409,0.0403,0.0397,0,0,0,0,0,0.0312,0.0313,0.0334,0.0345,0.0403,0.0426,0.0432,0.0468,0.0484,0.0474,0.0479,0.05,0.0476,0.0491,0.049,0.0473,0.0461,0.0458,0.0455,0.0412,0.0404,0.0397,0,0,0,0,0,0,0.0255,0.0319,0.0342,0.0361,0.0388,0.0434,0.0435,0.0459,0.0457,0.0455,0.0479,0.048,0.0453,0.0464,0.0481,0.0446,0.0473,0.0469,0.0441,0.0433,0.0427,0.0436,0.0515,0,0,0,0,0,0.0248,0.0268,0.0321,0.0333,0.0344,0.0386,0.04,0.042,0.0435,0.0436,0.0439,0.0441,0.0439,0.0438,0.043,0.0411,0.043,0.0399,0.0393,0.0387,0.0393,0.0401,0.0396,0.0443,0.0443,0.0443,0,0,0.0234,0.0269,0.0282,0.0323,0.0345,0.033,0.0393,0.0403,0.0386,0.0433,0.0393,0.0411,0.0426,0.0403,0.0393,0.0413,0.0381,0.0383,0.0379,0.0388,0.0397,0.0393,0.0389,0.0441,0.0441,0.0442,0,0,0.0187,0.0238,0.0224,0.0236,0.0268,0.0292,0.0291,0.0319,0.033,0.0304,0.0336,0.0353,0.0324,0.0355,0.0364,0.0319,0.0341,0.0302,0.0287,0.0293,0.029,0.0288,0.0297,0.0296,0.0307,0.0307,0.0307,0,0.0158,0.0147,0.022,0.0193,0.0189,0.0264,0.0221,0.0244,0.0257,0.0271,0.0275,0.0289,0.0308,0.0322,0.0311,0.0308,0.0307,0.0317,0.0287,0.0285,0.0283,0.0294,0.0293,0.0304,0.0305,0.0305,0.0305,0,0.0091,0.0073,0.0061,0.0053,0.0062,0.004,0.0084,0.0094,0.0117,0.0151,0.0164,0.0203,0.0229,0.0233,0.0258,0.0261,0.0262,0.0273,0.0311,0.0276,0.0289,0.0289,0.03,0.0301,0.0302,0.0303,0,0,0.0028,0.0013,0.0003,-0.0031,-0.002,-0.002,-0.0029,-0.0006,0.0005,0.0038,0.0038,0.0087,0.0153,0.0169,0.0217,0.0235,0.0231,0.0244,0.0246,0.0262,0.0234,0.0282,0.0288,0.0224,0.0224,0.0224,0.0245,0,-0.0066,-0.0152,-0.0127,-0.0213,-0.0258,-0.0191,-0.0203,-0.0156,-0.0108,-0.0089,0.0013,0.0026,0.0116,0.013,0.017,0.0198,0.0229,0.0224,0.0258,0.026,0.0315,0.0289,0.0277,0.0299,0.0245,0.0245,0.0245,0,-0.0161,-0.0205,-0.0309,-0.0345,-0.0355,-0.038,-0.0353,-0.0351,-0.0261,-0.0222,-0.0138,-0.0067,0.0004,0.0058,0.0148,0.013,0.0187,0.022,0.0222,0.0289,0.031,0.0325,0.0301,0.0246,0.0246,0.0246,0.0246,0,-0.0256,-0.0336,-0.0423,-0.0442,-0.0462,-0.0471,-0.0462,-0.0386,-0.0365,-0.0294,-0.0271,-0.0167,-0.0119,-0.0045,0.0098,0.0093,0.0173,0.0175,0.0285,0.0288,0.03,0.0306,0.0237,0.0237,0.0237,0.0237,0.0237,0,-0.0376,-0.0447,-0.047,-0.0519,-0.0581,-0.0558,-0.0577,-0.0535,-0.0481,-0.0448,-0.0333,-0.0281,-0.0146,-0.0052,0.0047,0.0184,0.0152,0.0283,0.0298,0.0282,0.0285,0.0261,0.0263,0.0238,0.0238,0.0238,0.0238,0,-0.0471,-0.0501,-0.0589,-0.0625,-0.0631,-0.0663,-0.0645,-0.0636,-0.0582,-0.0543,-0.0525,-0.0381,-0.0256,-0.0101,0.0021,0.0134,0.0237,0.0302,0.0286,0.03,0.0349,0.0348,0.0379,0.0381,0.0383,0.0384,0.0385,0,-0.0529,-0.0591,-0.065,-0.0677,-0.0695,-0.0723,-0.0723,-0.0686,-0.0663,-0.0578,-0.0563,-0.0433,-0.0302,-0.009,0.0101,0.0273,0.0291,0.0373,0.0382,0.0353,0.0364,0.0361,0.0358,0.0368,0.0369,0.0369,0.037,0,-0.0622,-0.0636,-0.0687,-0.0743,-0.0769,-0.0794,-0.0792,-0.0794,-0.073,-0.0687,-0.0595,-0.0503,-0.0262,-0.0049,0.0196,0.0297,0.0335,0.0395,0.0357,0.0345,0.0347,0.0356,0.0353,0.0376,0.0376,0.0375,0.0375,0.0375,-0.0659,-0.0699,-0.0746,-0.0795,-0.0826,-0.0848,-0.0858,-0.0833,-0.0807,-0.0714,-0.0619,-0.0453,-0.0245,0.0105,0.0275,0.043,0.0415,0.0458,0.0453,0.0447,0.0454,0.046,0.0511,0.0512,0.0512,0.0512,0.0512,0,-0.0696,-0.0733,-0.0785,-0.0841,-0.0878,-0.0882,-0.0886,-0.0868,-0.0827,-0.0704,-0.059,-0.0346,-0.0094,0.0113,0.037,0.0518,0.0494,0.0535,0.0479,0.0472,0.0466,0.0471,0.0535,0.0535,0.0535,0.0536,0,0,-0.0714,-0.0767,-0.0794,-0.0866,-0.0901,-0.093,-0.0931,-0.0887,-0.0798,-0.0675,-0.0532,-0.0334,-0.0079,0.0113,0.0295,0.0426,0.0407,0.0432,0.0399,0.0304,0.0296,0.0407,0.0407,0,0,0,0,0]}],[{"header":{"parameterUnit":"m.s-1","parameterCategory":2,"la1":30.2991,"la2":30.254,"lo1":-89.0895,"lo2":-89.0444,"dy":0.0017,"dx":0.0017,"nx":28,"ny":28,"refTime":"2024-03-30T03:00:00:Z","depth":"4","parameterNumber":2,"parameterNumberName":"U-component_of_CURRENTS"},"data":[0,0,0,0,0,0,0,0,0,0,0,0,0,0,0,0,0,0,0,0,0,0,0,0,0,0,0,0,0,0,0,0,0,0,0,0,0,0,0,0,0,0,0,0,0,0,0,0,0,0,0,0,0,0,0,0,0,0,-0.0967,-0.0968,0,-0.1007,-0.1007,-0.1008,-0.1017,-0.1017,-0.1017,-0.1016,-0.1132,-0.1135,-0.1139,0,0,0,0,0,0,0,0,0,0,0,0,0,-0.0904,-0.0905,-0.0967,-0.0968,-0.0968,-0.1007,-0.1007,-0.1008,-0.1017,-0.1017,-0.1017,-0.1016,-0.1131,-0.1135,-0.1139,0,0,0,0,0,0,0,0,0,0,0,0,0,-0.0935,-0.0905,-0.0967,-0.0978,-0.098,-0.1007,-0.1008,-0.1008,-0.1017,-0.1017,-0.1017,-0.1016,-0.113,-0.1135,-0.1139,-0.1174,0,0,-0.1154,-0.1156,0,0,0,0,0,0,0,0,-0.0933,-0.0937,-0.0976,-0.0978,-0.0979,-0.1008,-0.1028,-0.1068,-0.1017,-0.1002,-0.1016,-0.1016,-0.1099,-0.1106,-0.1111,-0.118,-0.1185,-0.1155,-0.1158,-0.116,-0.1161,0,0,0,0,0,0,0,-0.0931,-0.0936,-0.0982,-0.0977,-0.0979,-0.0984,-0.0988,-0.1035,-0.1052,-0.1003,-0.1004,-0.1011,-0.11,-0.1106,-0.1114,-0.1186,-0.1155,-0.1159,-0.1162,-0.1164,-0.1296,-0.1297,0,0,0,0,0,0,-0.0929,-0.0934,-0.098,-0.0983,-0.0957,-0.0985,-0.0989,-0.0998,-0.1049,-0.1057,-0.1011,-0.1011,-0.1098,-0.1109,-0.1119,-0.1207,-0.116,-0.1164,-0.1167,-0.1296,-0.1296,-0.1297,0,0,0,0,0,0,-0.0928,-0.0933,-0.0979,-0.096,-0.0966,-0.0986,-0.0996,-0.0999,-0.1019,-0.1055,-0.1063,-0.103,-0.1099,-0.1112,-0.1178,-0.121,-0.1166,-0.1171,-0.1295,-0.1296,-0.1297,-0.1356,0,0,0,0,0,0,-0.0926,-0.0932,-0.0944,-0.096,-0.0967,-0.1007,-0.0996,-0.1,-0.1023,-0.1024,-0.1074,-0.1083,-0.1099,-0.117,-0.1182,-0.1216,-0.1175,-0.1294,-0.1295,-0.1296,-0.1353,-0.1358,-0.1363,0,0,0,0,0,-0.0923,-0.0937,-0.0944,-0.0951,-0.0981,-0.1008,-0.1012,-0.1024,-0.1025,-0.104,-0.1076,-0.1082,-0.1185,-0.1176,-0.119,-0.1225,-0.1294,-0.1295,-0.1296,-0.1351,-0.1357,-0.1363,0,0,0,0,0,0,-0.0919,-0.094,-0.0948,-0.097,-0.0993,-0.101,-0.1028,-0.1035,-0.1073,-0.1082,-0.1108,-0.1121,-0.1187,-0.1194,-0.1182,-0.126,-0.1234,-0.1238,-0.127,-0.1277,-0.1282,-0.1275,-0.1179,0,0,0,0,0,-0.0923,-0.0939,-0.0963,-0.0982,-0.0997,-0.1016,-0.1031,-0.1042,-0.1073,-0.1089,-0.1127,-0.1162,-0.1201,-0.1229,-0.1265,-0.1322,-0.1318,-0.1344,-0.1349,-0.1354,-0.1354,-0.138,-0.1388,-0.1302,-0.1302,-0.1302,0,0,-0.0926,-0.0942,-0.095,-0.0982,-0.1002,-0.1035,-0.1025,-0.1057,-0.109,-0.11,-0.1167,-0.1193,-0.1219,-0.1278,-0.1307,-0.1292,-0.1375,-0.1356,-0.136,-0.1357,-0.1382,-0.139,-0.1398,-0.1303,-0.1302,-0.1302,0,0,-0.094,-0.0957,-0.0978,-0.1003,-0.104,-0.1057,-0.107,-0.1107,-0.113,-0.1193,-0.1203,-0.1247,-0.1314,-0.1335,-0.1352,-0.1406,-0.1404,-0.1414,-0.1441,-0.1467,-0.1474,-0.1481,-0.1486,-0.1492,-0.1414,-0.1414,-0.1414,0,-0.0946,-0.0977,-0.0989,-0.1022,-0.1049,-0.107,-0.1107,-0.1137,-0.1192,-0.1208,-0.1223,-0.13,-0.1339,-0.1384,-0.1409,-0.1422,-0.1426,-0.1421,-0.1475,-0.1481,-0.1487,-0.149,-0.1497,-0.1417,-0.1417,-0.1417,-0.1416,0,-0.0972,-0.101,-0.1029,-0.1077,-0.1105,-0.1143,-0.1183,-0.1219,-0.1252,-0.127,-0.1329,-0.1375,-0.1409,-0.1432,-0.1452,-0.1504,-0.149,-0.1483,-0.1463,-0.15,-0.15,-0.1506,-0.1422,-0.1421,-0.142,-0.1419,0,0,-0.0959,-0.1033,-0.1045,-0.1074,-0.114,-0.116,-0.1221,-0.1265,-0.1287,-0.1346,-0.1381,-0.1454,-0.1458,-0.1477,-0.1496,-0.153,-0.1594,-0.1534,-0.1534,-0.1544,-0.164,-0.1522,-0.1517,-0.1602,-0.1603,-0.1604,-0.1623,0,-0.0985,-0.1051,-0.1083,-0.1149,-0.1187,-0.1225,-0.127,-0.1308,-0.1345,-0.1388,-0.1423,-0.1472,-0.1479,-0.1508,-0.1542,-0.1592,-0.1612,-0.1588,-0.1597,-0.1596,-0.1493,-0.1521,-0.1608,-0.1628,-0.1629,-0.163,-0.163,0,-0.1002,-0.1047,-0.1117,-0.1179,-0.1197,-0.1239,-0.129,-0.133,-0.1381,-0.1413,-0.1447,-0.1476,-0.1546,-0.1548,-0.1619,-0.1607,-0.1627,-0.165,-0.1651,-0.1523,-0.1489,-0.1582,-0.1641,-0.164,-0.1639,-0.1638,-0.1638,0,-0.0976,-0.1065,-0.1119,-0.1147,-0.1223,-0.1255,-0.1289,-0.1335,-0.137,-0.1429,-0.1472,-0.1514,-0.1577,-0.1604,-0.1656,-0.1652,-0.1723,-0.1715,-0.161,-0.1602,-0.1677,-0.167,-0.1745,-0.1745,-0.1745,-0.1745,-0.1745,0,-0.098,-0.1025,-0.1114,-0.1142,-0.1189,-0.1242,-0.1286,-0.1318,-0.1385,-0.1425,-0.1481,-0.1528,-0.1603,-0.1649,-0.1666,-0.165,-0.1722,-0.1614,-0.1601,-0.17,-0.1695,-0.1681,-0.1674,-0.1746,-0.1745,-0.1745,-0.1745,0,-0.0943,-0.1009,-0.1068,-0.1155,-0.1181,-0.1208,-0.1291,-0.1322,-0.1388,-0.1453,-0.1488,-0.1576,-0.1624,-0.1657,-0.1714,-0.1662,-0.1659,-0.1628,-0.1725,-0.1717,-0.1518,-0.1513,-0.1512,-0.1508,-0.1505,-0.1502,-0.15,0,-0.093,-0.0963,-0.1059,-0.1097,-0.1143,-0.12,-0.1243,-0.1314,-0.1354,-0.1467,-0.1501,-0.1581,-0.1622,-0.1593,-0.1634,-0.161,-0.1592,-0.1569,-0.1545,-0.1508,-0.1496,-0.1496,-0.1496,-0.1495,-0.1494,-0.1493,-0.1492,0,-0.0903,-0.0946,-0.0994,-0.1063,-0.1123,-0.1169,-0.1237,-0.1261,-0.1348,-0.1438,-0.1471,-0.1481,-0.1524,-0.1528,-0.1512,-0.15,-0.1575,-0.1533,-0.154,-0.1518,-0.1486,-0.1477,-0.1481,-0.148,-0.1482,-0.1483,-0.1484,0,-0.088,-0.0901,-0.0969,-0.1013,-0.1086,-0.1116,-0.1157,-0.1211,-0.125,-0.1373,-0.1382,-0.1451,-0.1522,-0.1471,-0.1465,-0.143,-0.1409,-0.1358,-0.1374,-0.1387,-0.1333,-0.1273,-0.1189,0,0,0,0,0,-0.0851,-0.0867,-0.0915,-0.0957,-0.1025,-0.1052,-0.1147,-0.1194,-0.1288,-0.1281,-0.132,-0.1343,-0.133,-0.1362,-0.1298,-0.1402,-0.1411,-0.1321,-0.1362,-0.1416,-0.1429,-0.1375,0,0,0,0,0,0,-0.0833,-0.088,-0.089,-0.0898,-0.0911,-0.0966,-0.1017,-0.1086,-0.1079,-0.1181,-0.1181,-0.1249,-0.1254,-0.1339,-0.1265,-0.1271,-0.1267,-0.1358,-0.1354,-0.1408,-0.1421,-0.1431,-0.138,0,0,0,0,0]},{"header":{"parameterUnit":"m.s-1","parameterCategory":2,"la1":30.2991,"la2":30.254,"lo1":-89.0895,"lo2":-89.0444,"dy":0.0017,"dx":0.0017,"nx":28,"ny":28,"refTime":"2024-03-30T03:00:00:Z","depth":"4","parameterNumber":3,"parameterNumberName":"V-component_of_CURRENTS"},"data":[0,0,0,0,0,0,0,0,0,0,0,0,0,0,0,0,0,0,0,0,0,0,0,0,0,0,0,0,0,0,0,0,0,0,0,0,0,0,0,0,0,0,0,0,0,0,0,0,0,0,0,0,0,0,0,0,0,0,-0.0124,-0.0124,0,-0.011,-0.011,-0.011,-0.0118,-0.0119,-0.0119,-0.0119,-0.0065,-0.0063,-0.0062,0,0,0,0,0,0,0,0,0,0,0,0,0,-0.0146,-0.0146,-0.0124,-0.0124,-0.0123,-0.011,-0.011,-0.011,-0.0118,-0.0119,-0.0119,-0.0119,-0.0066,-0.0064,-0.0062,0,0,0,0,0,0,0,0,0,0,0,0,0,-0.0136,-0.0146,-0.0124,-0.0125,-0.0125,-0.011,-0.011,-0.011,-0.0118,-0.0119,-0.0119,-0.0119,-0.0066,-0.0064,-0.0061,-0.0038,0,0,-0.0054,-0.0053,0,0,0,0,0,0,0,0,-0.0137,-0.0136,-0.0125,-0.0125,-0.0124,-0.0115,-0.0098,-0.0084,-0.0118,-0.0122,-0.0119,-0.012,-0.0077,-0.0073,-0.0073,-0.0036,-0.0033,-0.0053,-0.0052,-0.0051,-0.005,0,0,0,0,0,0,0,-0.0137,-0.0136,-0.012,-0.0125,-0.0124,-0.0122,-0.0121,-0.0096,-0.0098,-0.0122,-0.0122,-0.0118,-0.0077,-0.0075,-0.0071,-0.0033,-0.0054,-0.0051,-0.005,-0.0049,-0.0029,-0.003,0,0,0,0,0,0,-0.0136,-0.0137,-0.0121,-0.012,-0.013,-0.0121,-0.012,-0.0119,-0.0099,-0.0096,-0.0118,-0.0119,-0.0079,-0.0074,-0.0069,-0.0079,-0.0051,-0.0049,-0.0047,-0.0028,-0.0029,-0.003,0,0,0,0,0,0,-0.0137,-0.0135,-0.0121,-0.0127,-0.0125,-0.012,-0.0119,-0.0119,-0.0121,-0.0096,-0.0093,-0.012,-0.0079,-0.0073,-0.005,-0.0075,-0.0047,-0.0045,-0.0027,-0.0028,-0.0029,-0.0073,0,0,0,0,0,0,-0.0138,-0.0135,-0.014,-0.0127,-0.0124,-0.0117,-0.0118,-0.0118,-0.0117,-0.0118,-0.0097,-0.0092,-0.0079,-0.0054,-0.0048,-0.0071,-0.0043,-0.0025,-0.0027,-0.0029,-0.007,-0.0076,-0.0081,0,0,0,0,0,-0.0138,-0.0142,-0.014,-0.0138,-0.0128,-0.0117,-0.0116,-0.0115,-0.0116,-0.0118,-0.0103,-0.0093,-0.0063,-0.0052,-0.0045,-0.0068,-0.0024,-0.0027,-0.0029,-0.0068,-0.0075,-0.008,0,0,0,0,0,0,-0.0153,-0.0143,-0.014,-0.0141,-0.0131,-0.0118,-0.0118,-0.0115,-0.0106,-0.0105,-0.0087,-0.0081,-0.0078,-0.0062,-0.0051,-0.0071,-0.0049,-0.005,-0.0082,-0.0088,-0.0093,-0.0112,-0.0041,0,0,0,0,0,-0.0158,-0.016,-0.0145,-0.0145,-0.0139,-0.0129,-0.0125,-0.0121,-0.0108,-0.0105,-0.0091,-0.0081,-0.0081,-0.0074,-0.0063,-0.0057,-0.0023,-0.0074,-0.0079,-0.0084,-0.0096,-0.0068,-0.0072,-0.0037,-0.0037,-0.0037,0,0,-0.0164,-0.0158,-0.016,-0.0149,-0.014,-0.0146,-0.0128,-0.012,-0.0134,-0.0098,-0.0106,-0.0089,-0.0082,-0.0086,-0.0085,-0.0075,-0.0068,-0.0087,-0.009,-0.0101,-0.0071,-0.0074,-0.0077,-0.0039,-0.0038,-0.0038,0,0,-0.0175,-0.017,-0.0174,-0.0169,-0.0154,-0.0153,-0.0152,-0.0136,-0.0139,-0.0131,-0.0126,-0.0126,-0.0103,-0.0119,-0.0122,-0.0146,-0.0094,-0.0142,-0.0183,-0.0155,-0.0158,-0.0159,-0.0085,-0.008,-0.0147,-0.0147,-0.0147,0,-0.0181,-0.0193,-0.0173,-0.0176,-0.0185,-0.0161,-0.0176,-0.0173,-0.0155,-0.0164,-0.0139,-0.0141,-0.013,-0.0164,-0.0178,-0.0161,-0.011,-0.0158,-0.0161,-0.0162,-0.0163,-0.0087,-0.0081,-0.0149,-0.0149,-0.0149,-0.0149,0,-0.0194,-0.021,-0.021,-0.0218,-0.0221,-0.0227,-0.0221,-0.0224,-0.0219,-0.0216,-0.0226,-0.0204,-0.0213,-0.0213,-0.02,-0.0221,-0.0168,-0.0166,-0.0143,-0.0169,-0.0087,-0.0079,-0.0153,-0.0152,-0.0151,-0.0151,0,0,-0.0194,-0.0219,-0.0221,-0.0248,-0.0249,-0.0257,-0.0279,-0.0299,-0.0319,-0.0296,-0.0315,-0.0324,-0.0303,-0.0307,-0.0291,-0.0271,-0.0225,-0.0221,-0.0218,-0.0142,-0.0114,-0.0102,-0.0092,-0.021,-0.021,-0.021,-0.004,0,-0.0215,-0.0254,-0.0256,-0.0306,-0.0333,-0.0331,-0.0358,-0.0369,-0.0365,-0.0368,-0.0355,-0.0358,-0.0342,-0.0336,-0.0319,-0.0246,-0.0213,-0.0269,-0.0106,-0.01,-0.0084,-0.0088,-0.021,-0.0034,-0.0033,-0.0031,-0.003,0,-0.0229,-0.0263,-0.0319,-0.0377,-0.0385,-0.0408,-0.0455,-0.047,-0.047,-0.0456,-0.0455,-0.0425,-0.0407,-0.0378,-0.0278,-0.0302,-0.0222,-0.0158,-0.015,-0.0126,-0.0078,-0.0012,-0.0017,-0.0018,-0.0019,-0.002,-0.002,0,-0.0262,-0.031,-0.037,-0.0386,-0.0435,-0.0464,-0.0487,-0.0503,-0.0514,-0.0508,-0.0488,-0.0468,-0.0422,-0.0349,-0.0227,-0.024,-0.0079,-0.0081,0.0007,0.0012,-0.0028,-0.0028,-0.0017,-0.0017,-0.0017,-0.0018,-0.0018,0,-0.0297,-0.0343,-0.0392,-0.0426,-0.0492,-0.0504,-0.0553,-0.0568,-0.0563,-0.0563,-0.0534,-0.0503,-0.0408,-0.0308,-0.0217,-0.007,-0.007,0.0002,0.0042,-0.0044,-0.0049,-0.0019,-0.0022,-0.0011,-0.0013,-0.0014,-0.0015,0,-0.0329,-0.0359,-0.0431,-0.0493,-0.0513,-0.0557,-0.0591,-0.0611,-0.0599,-0.0587,-0.0578,-0.05,-0.0369,-0.0258,-0.01,-0.0039,0.0083,0.0132,0.0071,0.0106,0.0161,0.0154,0.0247,0.0249,0.025,0.0251,0.0252,0,-0.0353,-0.0395,-0.0477,-0.0513,-0.0545,-0.0599,-0.0626,-0.0635,-0.0636,-0.058,-0.0561,-0.0442,-0.0378,-0.0125,-0.003,0.0154,0.016,0.0237,0.0145,0.0151,0.0182,0.0173,0.0165,0.0254,0.0255,0.0255,0.0255,0,-0.0403,-0.0428,-0.0482,-0.0556,-0.06,-0.0644,-0.0672,-0.0669,-0.0651,-0.0634,-0.0525,-0.0415,-0.0255,-0.0107,0.0044,0.0159,0.0185,0.025,0.0247,0.0162,0.0161,0.0188,0.0178,0.026,0.0259,0.0259,0.0258,0,-0.043,-0.047,-0.0531,-0.059,-0.0644,-0.0669,-0.0684,-0.0656,-0.0647,-0.057,-0.0526,-0.0375,-0.0284,-0.0099,0.0032,0.0151,0.016,0.0179,0.018,0.0176,0.0078,0.0061,0.0165,0,0,0,0,0,-0.0455,-0.0495,-0.0556,-0.0618,-0.0666,-0.0693,-0.0705,-0.0699,-0.0666,-0.0587,-0.0555,-0.0411,-0.0206,-0.0118,0.0006,0.003,0.0164,0.0175,0.0181,0.0285,0.0279,0.0172,0,0,0,0,0,0,-0.0473,-0.0533,-0.0559,-0.0621,-0.066,-0.0706,-0.0711,-0.0688,-0.0633,-0.0581,-0.0467,-0.0397,-0.0198,-0.0277,0.0002,0.0038,0.0055,0.0272,0.0275,0.0287,0.0283,0.0279,0.0167,0,0,0,0,0]}]]